Location: Woodhurst
(52.3667°N, 0.0667°W)
Time: 06:48:08
(UTC+00:00)

Cosmos 1697 Rocket - Pass Details

Date: 19 May 2025
Orbit: 830 x 844 km, 71.0° (Epoch: 18 June)

Event Time Altitude Azimuth Distance (km) Brightness Sun altitude
Rises 21:16:10 0° 327° (NNW) 3,407 8.2 -9.7°
Reaches altitude 10° 21:18:38 10° 325° (NW) 2,470 6.8 -9.9°
Maximum altitude 21:24:14 64° 245° (WSW) 934 3.0 -10.4°
Enters shadow 21:29:25 12° 166° (SSE) 2,310 4.4 -10.9°
